Location: Unspecified
(0.0000°N, 0.0000°E)
Time: 18:57:39
(UTC+00:00)

RS-15 - Pass Details

Date: 14 December 2017
Orbit: 1886 x 2158 km, 64.8° (Epoch: 15 January)

Event Time Altitude Azimuth Distance (km) Brightness Sun altitude
Exits shadow 02:05:12 37° 176° (S) 2,675 8.8 -50.7°
Drops below altitude 10° 02:10:54 10° 166° (SSE) 4,266 10.1 -49.6°
Sets 02:14:09 0° 164° (SSE) 5,265 10.8 -48.9°
